Weather Roundup
Issued by NWS Chicago, IL

Home | Current Version | Previous Version | Text Only | Print | Product List | Glossary On
Versions: 1 2 3 4 5 6 7 8 9 10 11 12 13 14 15 16 17 18 19 20 21 22 23 24 25 26 27 28 29 30 31 32 33 34 35 36 37 38 39 40 41 42 43 44 45 46 47 48 49 50
000
NZUS59 KLOT 281308
HRRLOT

CHICAGO AREA WEATHER ROUNDUP
NATIONAL WEATHER SERVICE CHICAGO/ROMEOVILLE IL
800 AM CDT TUE MAR 28 2017

NOTE: "FAIR" INDICATES FEW OR NO CLOUDS BELOW 12,000 FEET WITH NO
SIGNIFICANT WEATHER AND/OR OBSTRUCTIONS TO VISIBILITY.

* THESE STATIONS ARE NOT UNDER NWS QUALITY CONTROL. THEY ALSO MAY NOT
  REPORT WEATHER SUCH AS PRECIPITATION OR FOG.

ILZ005-006-012>014-019>023-281400-
NORTHEAST ILLINOIS

CITY           SKY/WX    TMP DP  RH WIND       PRES   REMARKS
OHARE          CLOUDY    41  35  79 NE12      30.08R
MIDWAY         CLOUDY    41  36  82 N13G23    30.08R
AURORA         CLOUDY    42  37  82 NE12      30.08R
LANSING*       CLOUDY    39  38  97 N9        30.08R
JOLIET*        CLOUDY    43  37  80 N10       30.08R
WAUKEGAN       CLOUDY    39  37  92 N7        30.09R
DUPAGE AIRPORT CLOUDY    41  38  89 N9        30.08R
WHEELING       CLOUDY    40  37  89 N13G18    30.10R
KANKAKEE*      CLOUDY    40  37  87 N8        30.08R
MORRIS*        CLOUDY    42  38  85 CALM      30.07R
LEWIS AIRPORT* CLOUDY    41  38  89 NE17      30.07S
NORTHERLY ISL    N/A     38  36  92 NW12        N/A
$$

WIZ051-052-058>065-066-070>072-281400-
SOUTHEAST WISCONSIN

CITY           SKY/WX    TMP DP  RH WIND       PRES   REMARKS
MILWAUKEE      CLOUDY    41  35  79 N10       30.10R
KENOSHA*       CLOUDY    39  36  89 N9        30.09R
RACINE*        CLOUDY    39  36  89 N9        30.11R FOG
WAUKESHA       CLOUDY    37  36  93 N6        30.10R
WEST BEND      CLOUDY    37  37 100 N6        30.10R
$$

INZ001>003-010>013-019-020-281400-
NORTHWEST INDIANA

CITY           SKY/WX    TMP DP  RH WIND       PRES   REMARKS
GARY*          CLOUDY    39  37  93 N16       30.08R
MICHIGAN CITY* NOT AVBL
RENSSELAER*    NOT AVBL
VALPARAISO     CLOUDY    41  38  89 N12       30.05R
$$

LMZ740>746-281400-
SOUTHERN LAKE MICHIGAN

STATION/POSITION TIME  SKY/WX   TEMP WIND        PRES    VSBY
                                AIR  DIR/SP/G
                 (UTC)          (F)  (DEG/KT/KT) (MB)    (MI)
HARRISON CRIB    1240            38  350/ 13/ 15   N/A
BURNHAM HARBOR   1300            39  340/ 10/ 14   N/A
CALUMET HARBOR   1242            38  340/ 10/ 15 1018.0R
BURNS HARBOR     1240            38  350/ 10/ 13 1018.6R
MICHIGAN CITY    1240            38  350/ 13/ 15   N/A
$$

ABBREVIATIONS USED IN REMARKS
   TC - TEMPERATURE IN CELSIUS
  WCI - WIND CHILL INDEX
   HX - HEAT INDEX
  VSB - VISIBILITY
$$



USA.gov is the U.S. government's official web portal to all federal, state and local government web resources and services.